Time,TemperatureF,DewpointF,PressureIn,WindDirection,WindDirectionDegrees,WindSpeedMPH,WindSpeedGustMPH,Humidity,HourlyPrecipIn,Conditions,Clouds,dailyrainin,SoftwareType,DateUTC
2013-05-04 00:02:00,42.5,36.0,30.91,WNW,292,0.0,-999.0,77,-99.99,,,0.00,weatherlink.com 1.10,2013-05-04 05:02:00,
2013-05-04 00:17:00,42.1,35.0,30.90,WNW,292,0.0,-999.0,77,-99.99,,,0.00,weatherlink.com 1.10,2013-05-04 05:17:00,
2013-05-04 00:32:00,41.6,35.0,30.90,WNW,292,0.0,-999.0,77,-99.99,,,0.00,weatherlink.com 1.10,2013-05-04 05:32:00,
2013-05-04 00:47:00,41.5,35.0,30.89,WNW,292,0.0,-999.0,79,-99.99,,,0.00,weatherlink.com 1.10,2013-05-04 05:47:00,
2013-05-04 01:02:00,41.1,35.0,30.89,WNW,292,0.0,-999.0,78,-99.99,,,0.00,weatherlink.com 1.10,2013-05-04 06:02:00,
2013-05-04 01:17:00,40.8,35.0,30.89,WNW,292,0.0,-999.0,80,-99.99,,,0.00,weatherlink.com 1.10,2013-05-04 06:17:00,
2013-05-04 01:32:00,41.0,35.0,30.89,WNW,292,0.0,-999.0,79,-99.99,,,0.00,weatherlink.com 1.10,2013-05-04 06:32:00,
2013-05-04 01:47:00,41.0,35.0,30.88,WNW,292,0.0,-999.0,78,-99.99,,,0.00,weatherlink.com 1.10,2013-05-04 06:47:00,
2013-05-04 02:02:00,40.6,34.0,30.88,WNW,292,0.0,-999.0,77,-99.99,,,0.00,weatherlink.com 1.10,2013-05-04 07:02:00,
2013-05-04 02:17:00,40.4,34.0,30.86,WNW,292,0.0,-999.0,79,-99.99,,,0.00,weatherlink.com 1.10,2013-05-04 07:17:00,
2013-05-04 02:32:00,40.1,34.0,30.86,WNW,292,0.0,-999.0,80,-99.99,,,0.00,weatherlink.com 1.10,2013-05-04 07:32:00,
2013-05-04 02:47:00,39.9,34.0,30.85,WNW,292,0.0,-999.0,80,-99.99,,,0.00,weatherlink.com 1.10,2013-05-04 07:47:00,
2013-05-04 03:07:00,39.5,34.0,30.85,WNW,292,0.0,-999.0,80,-99.99,,,0.00,weatherlink.com 1.10,2013-05-04 08:07:00,
2013-05-04 03:17:00,39.2,34.0,30.85,WNW,292,0.0,-999.0,80,-99.99,,,0.00,weatherlink.com 1.10,2013-05-04 08:17:00,
2013-05-04 03:32:00,40.9,35.0,30.85,WNW,292,0.0,-999.0,80,-99.99,,,0.00,weatherlink.com 1.10,2013-05-04 08:32:00,
2013-05-04 03:47:00,43.2,35.0,30.84,WSW,253,0.0,-999.0,74,-99.99,,,0.00,weatherlink.com 1.10,2013-05-04 08:47:00,
2013-05-04 04:08:00,43.8,35.0,30.84,WSW,253,0.0,-999.0,71,-99.99,,,0.00,weatherlink.com 1.10,2013-05-04 09:08:00,
2013-05-04 04:18:00,44.2,35.0,30.84,WSW,250,0.0,-999.0,70,-99.99,,,0.00,weatherlink.com 1.10,2013-05-04 09:18:00,
2013-05-04 04:33:00,44.0,35.0,30.84,WSW,250,0.0,-999.0,70,-99.99,,,0.00,weatherlink.com 1.10,2013-05-04 09:33:00,
2013-05-04 04:48:00,43.6,35.0,30.84,WSW,240,0.0,-999.0,71,-99.99,,,0.00,weatherlink.com 1.10,2013-05-04 09:48:00,
2013-05-04 05:08:00,43.1,35.0,30.84,WSW,240,0.0,-999.0,72,-99.99,,,0.00,weatherlink.com 1.10,2013-05-04 10:08:00,
2013-05-04 05:18:00,43.1,35.0,30.84,WSW,240,0.0,-999.0,72,-99.99,,,0.00,weatherlink.com 1.10,2013-05-04 10:18:00,
2013-05-04 05:33:00,42.9,34.0,30.84,WSW,240,0.0,-999.0,72,-99.99,,,0.00,weatherlink.com 1.10,2013-05-04 10:33:00,
2013-05-04 05:48:00,43.0,35.0,30.83,SSW,205,1.0,-999.0,73,-99.99,,,0.00,weatherlink.com 1.10,2013-05-04 10:48:00,
2013-05-04 06:08:00,43.1,35.0,30.83,SSW,205,2.0,-999.0,72,-99.99,,,0.00,weatherlink.com 1.10,2013-05-04 11:08:00,
2013-05-04 06:18:00,43.2,34.0,30.83,SSW,204,2.0,-999.0,71,-99.99,,,0.00,weatherlink.com 1.10,2013-05-04 11:18:00,
2013-05-04 06:33:00,43.4,35.0,30.84,SSW,200,2.0,-999.0,71,-99.99,,,0.00,weatherlink.com 1.10,2013-05-04 11:33:00,
2013-05-04 06:48:00,43.7,34.0,30.85,SSW,200,2.0,-999.0,70,-99.99,,,0.00,weatherlink.com 1.10,2013-05-04 11:48:00,
2013-05-04 07:08:00,43.8,35.0,30.85,SSW,200,2.0,-999.0,71,-99.99,,,0.00,weatherlink.com 1.10,2013-05-04 12:08:00,
2013-05-04 07:18:00,44.7,36.0,30.86,SSW,194,2.0,-999.0,72,-99.99,,,0.00,weatherlink.com 1.10,2013-05-04 12:18:00,
2013-05-04 07:33:00,46.0,37.0,30.86,SSW,194,2.0,-999.0,72,-99.99,,,0.00,weatherlink.com 1.10,2013-05-04 12:33:00,
2013-05-04 07:48:00,47.6,38.0,30.86,South,177,4.0,-999.0,70,-99.99,,,0.00,weatherlink.com 1.10,2013-05-04 12:48:00,
2013-05-04 08:08:00,49.6,38.0,30.86,South,174,4.0,-999.0,65,-99.99,,,0.00,weatherlink.com 1.10,2013-05-04 13:08:00,
2013-05-04 08:18:00,52.2,38.0,30.86,SSE,162,5.0,-999.0,58,-99.99,,,0.00,weatherlink.com 1.10,2013-05-04 13:18:00,
2013-05-04 08:33:00,53.5,38.0,30.86,South,174,9.0,-999.0,56,-99.99,,,0.00,weatherlink.com 1.10,2013-05-04 13:33:00,
2013-05-04 08:48:00,55.3,39.0,30.86,South,175,9.0,-999.0,54,-99.99,,,0.00,weatherlink.com 1.10,2013-05-04 13:48:00,
2013-05-04 09:08:00,57.1,39.0,30.86,South,169,7.0,-999.0,52,-99.99,,,0.00,weatherlink.com 1.10,2013-05-04 14:08:00,
2013-05-04 09:18:00,59.8,39.0,30.85,SSW,200,9.0,-999.0,46,-99.99,,,0.00,weatherlink.com 1.10,2013-05-04 14:18:00,
2013-05-04 09:33:00,61.4,37.0,30.85,South,175,5.0,-999.0,40,-99.99,,,0.00,weatherlink.com 1.10,2013-05-04 14:33:00,
2013-05-04 09:48:00,63.0,39.0,30.85,South,185,9.0,-999.0,41,-99.99,,,0.00,weatherlink.com 1.10,2013-05-04 14:48:00,
2013-05-04 10:08:00,64.7,40.0,30.85,SSW,198,14.0,-999.0,40,-99.99,,,0.00,weatherlink.com 1.10,2013-05-04 15:08:00,
2013-05-04 10:18:00,65.9,37.0,30.84,SE,142,10.0,-999.0,35,-99.99,,,0.00,weatherlink.com 1.10,2013-05-04 15:18:00,
2013-05-04 10:33:00,67.4,39.0,30.84,SSW,203,8.0,-999.0,35,-99.99,,,0.00,weatherlink.com 1.10,2013-05-04 15:33:00,
2013-05-04 10:48:00,68.5,39.0,30.85,South,189,3.0,-999.0,34,-99.99,,,0.00,weatherlink.com 1.10,2013-05-04 15:48:00,
2013-05-04 11:09:00,69.4,37.0,30.84,SSW,196,5.0,-999.0,31,-99.99,,,0.00,weatherlink.com 1.10,2013-05-04 16:09:00,
2013-05-04 11:18:00,70.2,37.0,30.84,South,175,11.0,-999.0,30,-99.99,,,0.00,weatherlink.com 1.10,2013-05-04 16:18:00,
2013-05-04 11:33:00,70.8,38.0,30.83,SSE,163,9.0,-999.0,30,-99.99,,,0.00,weatherlink.com 1.10,2013-05-04 16:33:00,
2013-05-04 11:48:00,72.2,39.0,30.82,SE,140,2.0,-999.0,30,-99.99,,,0.00,weatherlink.com 1.10,2013-05-04 16:48:00,
2013-05-04 12:09:00,73.5,40.0,30.81,SSW,211,6.0,-999.0,30,-99.99,,,0.00,weatherlink.com 1.10,2013-05-04 17:09:00,
2013-05-04 12:19:00,74.1,41.0,30.81,SW,224,3.0,-999.0,30,-99.99,,,0.00,weatherlink.com 1.10,2013-05-04 17:19:00,
2013-05-04 12:34:00,74.6,40.0,30.80,SE,142,5.0,-999.0,29,-99.99,,,0.00,weatherlink.com 1.10,2013-05-04 17:34:00,
2013-05-04 12:49:00,75.1,40.0,30.79,South,169,11.0,-999.0,28,-99.99,,,0.00,weatherlink.com 1.10,2013-05-04 17:49:00,
2013-05-04 13:09:00,76.4,40.0,30.78,East,81,3.0,-999.0,27,-99.99,,,0.00,weatherlink.com 1.10,2013-05-04 18:09:00,
2013-05-04 13:19:00,76.8,39.0,30.78,South,178,3.0,-999.0,26,-99.99,,,0.00,weatherlink.com 1.10,2013-05-04 18:19:00,
2013-05-04 13:34:00,77.3,39.0,30.76,SW,223,1.0,-999.0,25,-99.99,,,0.00,weatherlink.com 1.10,2013-05-04 18:34:00,
2013-05-04 13:49:00,77.6,39.0,30.76,SSW,192,4.0,-999.0,25,-99.99,,,0.00,weatherlink.com 1.10,2013-05-04 18:49:00,
2013-05-04 14:09:00,78.4,39.0,30.75,West,278,9.0,-999.0,24,-99.99,,,0.00,weatherlink.com 1.10,2013-05-04 19:09:00,
2013-05-04 14:18:00,79.3,39.0,30.74,NNW,327,7.0,-999.0,24,-99.99,,,0.00,weatherlink.com 1.10,2013-05-04 19:18:00,
2013-05-04 14:33:00,78.9,40.0,30.73,West,273,4.0,-999.0,25,-99.99,,,0.00,weatherlink.com 1.10,2013-05-04 19:33:00,
2013-05-04 14:48:00,80.4,41.0,30.72,SSE,163,3.0,-999.0,25,-99.99,,,0.00,weatherlink.com 1.10,2013-05-04 19:48:00,
2013-05-04 15:09:00,80.8,41.0,30.72,SSE,161,3.0,-999.0,24,-99.99,,,0.00,weatherlink.com 1.10,2013-05-04 20:09:00,
2013-05-04 15:18:00,80.1,39.0,30.71,SSW,194,6.0,-999.0,23,-99.99,,,0.00,weatherlink.com 1.10,2013-05-04 20:18:00,
2013-05-04 15:33:00,80.5,40.0,30.70,SE,128,3.0,-999.0,24,-99.99,,,0.00,weatherlink.com 1.10,2013-05-04 20:33:00,
2013-05-04 15:48:00,80.7,42.0,30.70,South,171,3.0,-999.0,25,-99.99,,,0.00,weatherlink.com 1.10,2013-05-04 20:48:00,
2013-05-04 16:09:00,81.3,40.0,30.69,WNW,298,2.0,-999.0,23,-99.99,,,0.00,weatherlink.com 1.10,2013-05-04 21:09:00,
2013-05-04 16:18:00,81.5,38.0,30.68,SW,217,4.0,-999.0,21,-99.99,,,0.00,weatherlink.com 1.10,2013-05-04 21:18:00,
2013-05-04 16:33:00,81.7,38.0,30.68,SSW,202,4.0,-999.0,21,-99.99,,,0.00,weatherlink.com 1.10,2013-05-04 21:33:00,
2013-05-04 16:48:00,82.3,40.0,30.67,West,281,6.0,-999.0,22,-99.99,,,0.00,weatherlink.com 1.10,2013-05-04 21:48:00,
2013-05-04 17:09:00,82.0,37.0,30.67,ESE,104,2.0,-999.0,20,-99.99,,,0.00,weatherlink.com 1.10,2013-05-04 22:09:00,
2013-05-04 17:19:00,81.8,38.0,30.66,NW,319,4.0,-999.0,21,-99.99,,,0.00,weatherlink.com 1.10,2013-05-04 22:19:00,
2013-05-04 17:34:00,81.6,38.0,30.66,West,259,3.0,-999.0,21,-99.99,,,0.00,weatherlink.com 1.10,2013-05-04 22:34:00,
2013-05-04 17:49:00,81.1,36.0,30.66,SSW,201,5.0,-999.0,20,-99.99,,,0.00,weatherlink.com 1.10,2013-05-04 22:49:00,
2013-05-04 18:09:00,80.2,36.0,30.66,SSW,211,4.0,-999.0,20,-99.99,,,0.00,weatherlink.com 1.10,2013-05-04 23:09:00,
2013-05-04 18:19:00,79.1,36.0,30.66,West,259,0.0,-999.0,21,-99.99,,,0.00,weatherlink.com 1.10,2013-05-04 23:19:00,
2013-05-04 18:34:00,78.5,38.0,30.66,West,268,0.0,-999.0,23,-99.99,,,0.00,weatherlink.com 1.10,2013-05-04 23:34:00,
2013-05-04 18:49:00,77.8,37.0,30.66,NW,305,1.0,-999.0,23,-99.99,,,0.00,weatherlink.com 1.10,2013-05-04 23:49:00,
2013-05-04 19:09:00,77.2,39.0,30.66,West,278,2.0,-999.0,25,-99.99,,,0.00,weatherlink.com 1.10,2013-05-05 00:09:00,
2013-05-04 19:18:00,76.8,38.0,30.66,West,274,0.0,-999.0,25,-99.99,,,0.00,weatherlink.com 1.10,2013-05-05 00:18:00,
2013-05-04 19:33:00,76.0,41.0,30.67,West,274,0.0,-999.0,29,-99.99,,,0.00,weatherlink.com 1.10,2013-05-05 00:33:00,
2013-05-04 19:48:00,74.3,43.0,30.67,West,274,0.0,-999.0,32,-99.99,,,0.00,weatherlink.com 1.10,2013-05-05 00:48:00,
2013-05-04 20:09:00,72.2,42.0,30.68,West,274,0.0,-999.0,34,-99.99,,,0.00,weatherlink.com 1.10,2013-05-05 01:09:00,
2013-05-04 20:19:00,69.5,42.0,30.68,West,274,0.0,-999.0,37,-99.99,,,0.00,weatherlink.com 1.10,2013-05-05 01:19:00,
2013-05-04 20:34:00,67.0,44.0,30.69,West,274,0.0,-999.0,43,-99.99,,,0.00,weatherlink.com 1.10,2013-05-05 01:34:00,
2013-05-04 20:49:00,64.9,44.0,30.69,West,274,0.0,-999.0,47,-99.99,,,0.00,weatherlink.com 1.10,2013-05-05 01:49:00,
2013-05-04 21:09:00,63.3,46.0,30.70,West,274,0.0,-999.0,53,-99.99,,,0.00,weatherlink.com 1.10,2013-05-05 02:09:00,
2013-05-04 21:18:00,61.7,44.0,30.70,West,274,0.0,-999.0,52,-99.99,,,0.00,weatherlink.com 1.10,2013-05-05 02:18:00,
2013-05-04 21:33:00,60.5,44.0,30.71,West,274,0.0,-999.0,55,-99.99,,,0.00,weatherlink.com 1.10,2013-05-05 02:33:00,
2013-05-04 21:48:00,59.6,43.0,30.71,West,274,0.0,-999.0,55,-99.99,,,0.00,weatherlink.com 1.10,2013-05-05 02:48:00,
2013-05-04 22:09:00,58.7,44.0,30.72,West,274,0.0,-999.0,58,-99.99,,,0.00,weatherlink.com 1.10,2013-05-05 03:09:00,
2013-05-04 22:19:00,58.7,45.0,30.73,West,274,0.0,-999.0,61,-99.99,,,0.00,weatherlink.com 1.10,2013-05-05 03:19:00,
2013-05-04 22:34:00,58.1,44.0,30.75,West,274,0.0,-999.0,60,-99.99,,,0.00,weatherlink.com 1.10,2013-05-05 03:34:00,
2013-05-04 22:49:00,57.6,44.0,30.76,West,274,0.0,-999.0,60,-99.99,,,0.00,weatherlink.com 1.10,2013-05-05 03:49:00,
2013-05-04 23:09:00,57.1,43.0,30.77,West,274,0.0,-999.0,60,-99.99,,,0.00,weatherlink.com 1.10,2013-05-05 04:09:00,
2013-05-04 23:19:00,55.9,43.0,30.77,West,274,0.0,-999.0,62,-99.99,,,0.00,weatherlink.com 1.10,2013-05-05 04:19:00,
2013-05-04 23:34:00,55.3,44.0,30.78,West,274,0.0,-999.0,65,-99.99,,,0.00,weatherlink.com 1.10,2013-05-05 04:34:00,
2013-05-04 23:49:00,54.6,43.0,30.77,West,274,0.0,-999.0,66,-99.99,,,0.00,weatherlink.com 1.10,2013-05-05 04:49:00,